Meadville, PA

8:16 AM EST on February 21, 2017 (GMT -0500)
Port Meadville

Weather History for KGKJ - December, 2013

Change the Weather History Date:

Sunday, December 8, 2013

  Actual Average Record
Temperature  
Mean Temperature 22 °F -  
Max Temperature 26 °F 38 °F 59 °F (1951)
Min Temperature 18 °F 26 °F 5 °F (1977)
Degree Days  
Heating Degree Days 43    
Moisture  
Dew Point 15 °F    
Average Humidity 74    
Maximum Humidity 88    
Minimum Humidity 60    
Precipitation  
Precipitation 0.00 in - - ()
Sea Level Pressure  
Sea Level Pressure 30.35 in    
Wind  
Wind Speed 5 mph (ESE)    
Max Wind Speed 13 mph    
Max Gust Speed 21 mph    
Visibility 10 miles    
Events      
Averages and records for this station are not official NWS values.
T = Trace of Precipitation, MM = Missing Value Source: NWS Daily Summary

Daily Weather History Graph

Daily Weather History Graph

Search for Another Location

Airport or City:

Trip Planner

Search our weather history database for the weather conditions in past years. The results will help you decide how hot, cold, wet, or windy it might be!

Date:

Astronomy

Dec. 08, 2013 Rise Set
Actual Time 7:35 AM EST 4:50 PM EST
Civil Twilight 7:03 AM EST 5:21 PM EST
Nautical Twilight 6:29 AM EST 5:56 PM EST
Astronomical Twilight 5:55 AM EST 6:30 PM EST
Moon 11:51 AM EST (12/8) 11:42 PM EST (12/8)
Length of Visible Light 10h 17m
Length of Day
9h 15m
Waxing Crescent, 40% of the Moon is Illuminated
Dec 8
Waxing Crescent
Dec 9
First Quarter
Dec 17
Full
Dec 25
Last Quarter
Jan 1
New

Hourly Weather History & Observations

Time (EST) Temp. Windchill Dew Point Humidity Pressure Visibility Wind Dir Wind Speed Gust Speed Precip Events Conditions
12:53 AM 19.9 °F 12.1 °F 12.9 °F 74% 30.58 in 10.0 mi SSW 5.8 mph - N/A   Overcast
1:53 AM 19.0 °F 13.9 °F 12.9 °F 77% 30.56 in 10.0 mi South 3.5 mph - N/A   Overcast
2:53 AM 19.0 °F 12.3 °F 12.0 °F 74% 30.55 in 10.0 mi South 4.6 mph - N/A   Clear
3:53 AM 18.0 °F 12.7 °F 12.0 °F 78% 30.55 in 10.0 mi SSW 3.5 mph - N/A   Clear
4:53 AM 18.0 °F - 12.9 °F 81% 30.53 in 10.0 mi Calm Calm - N/A   Clear
5:53 AM 19.0 °F - 12.9 °F 77% 30.54 in 10.0 mi Calm Calm - N/A   Clear
6:53 AM 19.0 °F - 12.9 °F 77% 30.53 in 10.0 mi Calm Calm - N/A   Clear
7:53 AM 19.9 °F - 12.9 °F 74% 30.55 in 10.0 mi Calm Calm - N/A   Clear
8:53 AM 19.9 °F 13.4 °F 12.9 °F 74% 30.51 in 10.0 mi East 4.6 mph - N/A   Mostly Cloudy
9:53 AM 21.0 °F 12.4 °F 12.0 °F 68% 30.51 in 10.0 mi East 6.9 mph - N/A   Overcast
10:53 AM 21.9 °F 12.5 °F 12.9 °F 68% 30.49 in 10.0 mi East 8.1 mph - N/A   Overcast
11:53 AM 23.0 °F 11.1 °F 12.0 °F 63% 30.41 in 10.0 mi East 12.7 mph - N/A   Overcast
12:53 PM 24.1 °F 17.0 °F 12.0 °F 60% 30.42 in 10.0 mi East 5.8 mph - N/A   Overcast
1:53 PM 25.0 °F 15.5 °F 12.9 °F 60% 30.38 in 10.0 mi East 9.2 mph - N/A   Overcast
2:53 PM 25.0 °F 15.5 °F 12.9 °F 60% 30.34 in 10.0 mi East 9.2 mph - N/A   Overcast
3:53 PM 25.0 °F 16.3 °F 15.1 °F 66% 30.32 in 10.0 mi East 8.1 mph - N/A   Overcast
4:53 PM 25.0 °F 13.6 °F 16.0 °F 69% 30.28 in 10.0 mi East 12.7 mph - N/A   Overcast
5:41 PM 24.8 °F 15.3 °F 17.6 °F 74% 30.20 in 10.0 mi East 9.2 mph - N/A   Overcast
5:53 PM 25.0 °F 15.5 °F 18.0 °F 75% 30.25 in 10.0 mi East 9.2 mph - N/A   Overcast
6:53 PM 25.0 °F 18.1 °F 19.0 °F 78% 30.23 in 10.0 mi Variable 5.8 mph - N/A   Overcast
7:53 PM 25.0 °F 19.3 °F 19.0 °F 78% 30.20 in 10.0 mi Variable 4.6 mph - N/A   Overcast
8:53 PM 25.0 °F 17.1 °F 19.0 °F 78% 30.19 in 10.0 mi Variable 6.9 mph - N/A   Overcast
9:13 PM 24.8 °F 19.1 °F 19.4 °F 80% 30.12 in 10.0 mi Variable 4.6 mph - N/A   Overcast
9:53 PM 25.0 °F 18.1 °F 19.9 °F 81% 30.12 in 10.0 mi Variable 5.8 mph 20.7 mph N/A   Overcast
10:51 PM 26.6 °F 19.1 °F 21.2 °F 80% 30.04 in 10.0 mi Variable 6.9 mph - N/A   Overcast
10:53 PM 26.1 °F 17.6 °F 21.9 °F 84% 30.10 in 10.0 mi SE 8.1 mph - N/A   Overcast
11:53 PM 26.1 °F 19.4 °F 23.0 °F 88% 30.07 in 10.0 mi Variable 5.8 mph - N/A   Overcast